Find Local Weather

World > North America > United States > California

La Jolla, California Regional Weather

Lat: 32.85N, Lon: 117.27W
Wx Zone: CAZ043
Feedback
Expires:201810170500;;303543
ASUS46 KSGX 170411
RWRSGX

SAN DIEGO HOURLY WEATHER ROUNDUP
NATIONAL WEATHER SERVICE SAN DIEGO CA
900 PM PDT TUE OCT 16 2018

NOTE: "FAIR" INDICATES FEW OR NO CLOUDS BELOW 12,000 FEET WITH NO 
SIGNIFICANT WEATHER AND/OR OBSTRUCTIONS TO VISIBILITY.


CAZ042-043-060-061-PZZ750-775-170500-

GREATER SAN DIEGO AREA
  
CITY           SKY/WX    TMP DP  RH WIND       PRES   REMARKS
SAN DIEGO AP   CLEAR     70  50  49 CALM      30.05R                  
NATIONAL CITY    N/A     67  56  68 CALM      30.04R                  
CHULA VISTA      N/A     63  53  70 CALM      29.96R                  
IMPERIAL BEACH CLEAR     56  46  69 CALM      30.05R                  
BROWN FIELD    CLEAR     63  36  36 CALM      30.05R                  
MIRAMAR MCAS   CLEAR     60  37  42 CALM      30.04R                  
MONTGOMERY FLD CLEAR     66  41  40 CALM      30.05R                  
GILLESPIE FLD  CLEAR     64  37  36 CALM      30.05R                  

$$

NORTH SAN DIEGO COUNTY
  
CITY           SKY/WX    TMP DP  RH WIND       PRES   REMARKS
CAMP PENDLETON CLEAR     61  42  49 VRB6      30.03R                  
OCEANSIDE AP   CLEAR     58  47  66 CALM      30.02R                  
OCEANSIDE HBR    N/A     65  52  63 CALM      30.05R                  
VISTA            N/A     64  40  42 CALM      30.00R                  
CARLSBAD       CLEAR     64  52  64 E3        30.02S                  
DEL MAR          N/A     64  56  74 NE1       30.05R                  
LA JOLLA SCRIP   N/A     67  56  68 N1        30.04R                  
FALLBROOK      FAIR      63  39  42 NE3       30.05R                  
ESCONDIDO        N/A     65  36  33 CALM      30.05R                  
SAN MARCOS       N/A     65  38  38 CALM      30.07R                  
POWAY            N/A     59  34  38 CALM      30.06R                  

$$

EAST SAN DIEGO COUNTY
  
CITY           SKY/WX    TMP DP  RH WIND       PRES   REMARKS
RAMONA         CLEAR     51  31  46 S5        30.07R                  
LA MESA          N/A     64  48  56 CALM      29.98R                  
JAMUL            N/A     58  39  49 CALM      30.05R                  
CAMPO            N/A     51  14  22 CALM      30.07R                  

$$

ORANGE COUNTY AND THE LOS ANGELES BASIN
  
CITY           SKY/WX    TMP DP  RH WIND       PRES   REMARKS
JOHN WAYNE AP  CLEAR     70  44  39 CALM      30.03R                  
LAKE FOREST FR   N/A     64  22  20 CALM      29.90R                  
HUNTINGTON BCH   N/A     64  57  77 CALM      30.03R                  
FULLERTON      CLEAR     69  41  36 E5        30.02R                  
LONG BEACH     CLEAR     69  52  54 S3        30.02R                  
L.A. AP        CLEAR     70  51  51 SE7       30.02R                  
L.A. DOWNTOWN  CLEAR     69  51  52 CALM      30.01R                  

$$

THE INLAND EMPIRE
  
CITY           SKY/WX    TMP DP  RH WIND       PRES   REMARKS
CORONA         CLEAR     65  30  27 MISG      30.05R                  
CHINO          CLEAR     63  32  31 N5        30.05R                  
ONTARIO        CLEAR     71  23  16 N5        30.04S                  
SAN BERNARDINO CLEAR     66  19  16 CALM        N/A                   
RIVERSIDE AP   CLEAR     67  21  17 E5        30.05R                  
MORENO VALLEY    N/A     64  31  29 CALM      28.17R                  
HORSETHIEF CYN   N/A     64  15  15 W3        30.04R                  
PERRIS           N/A     67  27  22 SE1         N/A                   
HEMET EAST       N/A     63  14  15 CALM      29.98R                  
FRENCH VALLEY  FAIR      64  19  17 CALM      30.07R                  
TEMECULA         N/A     64  34  32 S2        30.10R                  

$$

SAN BERNARDINO AND RIVERSIDE COUNTY MOUNTAINS
  
CITY           SKY/WX    TMP DP  RH WIND       PRES   REMARKS
BIG BEAR AP    CLEAR     32  18  55 CALM      30.22S                  

$$

SOUTHERN DESERT INCLUDING THE COACHELLA VALLEY
  
CITY           SKY/WX    TMP DP  RH WIND       PRES   REMARKS
PALM SPRINGS   CLEAR     71  25  17 N9        30.06R                  
THOUSAND PALMS   N/A     66  25  21 NE2       30.02R                  
PALM DESERT      N/A     68  27  21 CALM      30.73S                  
THERMAL        CLEAR     63  35  35 W3        30.01R                  
BORREGO AP     FAIR      64  14  14 W6        30.04S                  
BLYTHE         PTCLDY    65  39  38 NW3       30.04R                  
IMPERIAL AP    CLEAR     69  24  18 E5        30.03R                  
EL CENTRO NAS  PTCLDY    66  24  20 VRB3      30.05R                  
YUMA AZ        CLEAR     69  26  20 N9        30.02S                  
MEXICALI       CLEAR     70  18  13 N3        30.04S                  

$$

UPPER DESERT
  
CITY           SKY/WX    TMP DP  RH WIND       PRES   REMARKS
HESPERIA         N/A     51  27  39 CALM      30.14R                  
APPLE VALLEY     N/A     43  35  73 SW2       30.18R                  
PALMDALE       CLEAR     60  11  14 S6        30.11R                  
LANCASTER      CLEAR     53   6  15 W6        30.11R                  
DAGGETT        CLEAR     59  20  22 W5        30.09S                  
29 PALMS N     PTCLDY    60  30  32 SW6       30.17R                  
NEEDLES        MOCLDY    68  37  32 N7        30.07S                  

$$

REGIONAL REPORTS
  
CITY           SKY/WX    TMP DP  RH WIND       PRES   REMARKS
SANTA BARBARA  CLEAR     61  54  77 CALM      30.01R                  
SANDBERG       CLEAR     58  18  21 E9        30.19R                  
LAS VEGAS NV   MOCLDY    64  20  18 CALM      30.11S                  
PHOENIX AZ     MOCLDY    63  44  50 E10       30.06R                  
TIJUANA        CLEAR     66  32  28 CALM      30.07R                  

$$

OFFSHORE ISLANDS
  
CITY           SKY/WX    TMP DP  RH WIND       PRES   REMARKS
CATALINA ARPT  CLEAR     65  28  24 W13       30.07S                  
SAN CLEMENTE I CLEAR     64  58  80 W9        30.05R                  
SAN NICOLAS IS CLEAR     64  32  30 W20       30.03R                  

$$

MARINE AND OFFSHORE BUOY REPORTS
  
STATION/POSITION SKY/WX   TEMP    WIND        PRES    VSBY  SWELL
                          AIR SEA DIR/SP/G                  HT/PER/DIR
                          (F)     (DEG/KT/KT) (MB)    (MI)  (FT/S/D)
TANNER BANKS               67 67              1017.2R
S CLEMENTE BASIN           69 67  320/  8/ 10 1016.4R         3/210/16
SAN NICOLAS IS.               65                N/A           2/190/17
SO. S. ROSA ISLA           65 64  310/ 14/ 16 1017.3R         3/220/16
W. S. BARBARA CH                                N/A           3/300/12
M. S. BARBARA CH           67 67  260/ 10/ 12 1016.5R         2/260/ 6
S. MONICA BASIN            67 67  310/ 10/ 12 1015.9R         2/200/15
S PEDRO CHANNEL               66                N/A           2/190/15
CMP PENDLETON NS              66                N/A           2/200/17
OCEANSIDE OFFSHR              65                N/A           2/220/15
TORREY PINES OTR              67                N/A           2/220/14
SAN DIEGO BAY                                 1016.8R
IMPERIAL BEACH                65                N/A           2/240/14
POINT LOMA SOUTH              67                N/A           3/210/17

$$

  

SKY/WX - Weather  TMP - Temperature  DP - Dew Point  RH - Relative Humidity
WIND - Wind Direction/Speed PRES - Barometric Pressure
Opt in/Opt out of Taboola Video Ads